User: anonymous   Login
Location: Unspecified
(0.0000°N, 0.0000°E)
Time: 12:37:39
(UTC+00:00)
Language:

DOVE 4 - Orbit

View from above orbital plane
View from above orbital plane
View from above satellite
View from above satellite

Ground track
Ground track

The orbit data is extracted from the following two-line orbital elements,

1 39430U 13066Q   18115.15602653  .00000220  00000-0  48503-4 0  9997
2 39430  97.6938  95.8645 0152542 137.5169 223.7957 14.59057495235421
Epoch (UTC): 25 April 2018 03:44:40
Eccentricity: 0.0152542
inclination: 97.6938°
perigee height: 588 km
apogee height: 804 km
right ascension of ascending node: 95.8645°
argument of perigee: 137.5169°
revolutions per day: 14.59057495
mean anomaly at epoch: 223.7957°
orbit number at epoch: 23542

The dashed part of the orbit path shows where the satellite is in the earth's shadow,  

DLR